Weather History for Hot Springs, VA

Change the Weather History Date:

Saturday, February 9, 2013

  Actual Average Record
Temperature  
Mean Temperature 24 °F -  
Max Temperature 33 °F 35 °F 60 °F (2001)
Min Temperature 15 °F 21 °F 6 °F (2007)
Degree Days  
Heating Degree Days 41    
Moisture  
Dew Point 11 °F    
Average Humidity 60    
Maximum Humidity 93    
Minimum Humidity 20    
Precipitation  
Precipitation 0.00 in - - ()
Sea Level Pressure  
Sea Level Pressure 30.14 in    
Wind  
Wind Speed 19 mph (WNW)    
Max Wind Speed 29 mph    
Max Gust Speed 44 mph    
Visibility 10 miles    
Events      
Averages and records for this station are not official NWS values.
T = Trace of Precipitation, MM = Missing Value Source: NWS Daily Summary

Daily Weather History Graph

Daily Weather History Graph

Search for Another Location

Airport:

Trip Planner

Search our weather history database for the weather conditions in past years. The results will help you decide how hot, cold, wet, or windy it might be!

Date:

Astronomy

Feb. 09, 2013 Rise Set
Actual Time 7:15 AM EST 5:51 PM EST
Civil Twilight 6:48 AM EST 6:19 PM EST
Nautical Twilight 6:17 AM EST 6:50 PM EST
Astronomical Twilight 5:46 AM EST 7:20 PM EST
Moon 6:26 AM EST (2/9) 5:32 PM EST (2/9)
Length of Visible Light 11h 30m
Length of Day
10h 36m
Waning Crescent, 0% of the Moon is Illuminated
Feb 9
Waning Crescent
Feb 10
New
Feb 17
First Quarter
Feb 25
Full
Mar 4
Last Quarter

Hourly Weather History & Observations

Time (EST) Temp. Windchill Dew Point Humidity Pressure Visibility Wind Dir Wind Speed Gust Speed Precip Events Conditions
12:15 AM 21.2 °F 4.5 °F 19.4 °F 93% 29.95 in 10.0 mi WNW 24.2 mph 38.0 mph N/A   Overcast
12:35 AM 21.2 °F 3.9 °F 19.4 °F 93% 29.95 in 10.0 mi WNW 26.5 mph 35.7 mph N/A   Overcast
12:55 AM 21.2 °F 4.2 °F 19.4 °F 93% 29.95 in 10.0 mi WNW 25.3 mph 43.7 mph N/A   Overcast
1:15 AM 21.2 °F 5.2 °F 17.6 °F 86% 29.96 in 10.0 mi WNW 21.9 mph 40.3 mph N/A   Overcast
1:35 AM 19.4 °F 2.5 °F 17.6 °F 93% 29.97 in 10.0 mi WNW 23.0 mph 32.2 mph N/A   Overcast
1:55 AM 19.4 °F 3.6 °F 15.8 °F 86% 29.97 in 10.0 mi WNW 19.6 mph 39.1 mph N/A   Overcast
2:15 AM 19.4 °F 2.8 °F 15.8 °F 86% 29.99 in 10.0 mi WNW 21.9 mph 33.4 mph N/A   Mostly Cloudy
2:35 AM 17.6 °F -0.6 °F 14.0 °F 86% 29.99 in 10.0 mi NW 25.3 mph 36.8 mph N/A   Scattered Clouds
2:55 AM 17.6 °F 0.1 °F 14.0 °F 86% 29.98 in 10.0 mi WNW 23.0 mph 34.5 mph N/A   Clear
3:15 AM 17.6 °F -0.6 °F 12.2 °F 79% 29.98 in 10.0 mi WNW 25.3 mph 35.7 mph N/A   Clear
3:35 AM 17.6 °F -0.6 °F 12.2 °F 79% 29.98 in 10.0 mi NW 25.3 mph 39.1 mph N/A   Clear
3:55 AM 17.6 °F -0.6 °F 12.2 °F 79% 29.98 in 10.0 mi WNW 25.3 mph 40.3 mph N/A   Clear
4:15 AM 17.6 °F -1.0 °F 12.2 °F 79% 29.98 in 10.0 mi NW 26.5 mph 39.1 mph N/A   Clear
4:35 AM 17.6 °F -0.3 °F 12.2 °F 79% 29.99 in 10.0 mi WNW 24.2 mph 41.4 mph N/A   Clear
4:55 AM 17.6 °F -0.6 °F 12.2 °F 79% 29.99 in 10.0 mi WNW 25.3 mph 39.1 mph N/A   Clear
5:15 AM 17.6 °F -1.6 °F 10.4 °F 73% 30.01 in 10.0 mi WNW 28.8 mph 35.7 mph N/A   Clear
5:35 AM 15.8 °F -3.4 °F 10.4 °F 79% 30.01 in 10.0 mi WNW 26.5 mph 42.6 mph N/A   Clear
5:55 AM 15.8 °F -4.1 °F 10.4 °F 79% 30.02 in 10.0 mi WNW 28.8 mph 38.0 mph N/A   Clear
6:15 AM 15.8 °F -4.1 °F 10.4 °F 79% 30.02 in 10.0 mi WNW 28.8 mph 39.1 mph N/A   Clear
6:35 AM 15.8 °F -2.3 °F 10.4 °F 79% 30.03 in 10.0 mi WNW 23.0 mph 38.0 mph N/A   Clear
6:55 AM 15.8 °F -3.7 °F 10.4 °F 79% 30.04 in 10.0 mi WNW 27.6 mph 38.0 mph N/A   Clear
7:15 AM 15.8 °F -1.1 °F 10.4 °F 79% 30.05 in 10.0 mi NW 19.6 mph 32.2 mph N/A   Clear
7:35 AM 15.8 °F -2.3 °F 10.4 °F 79% 30.06 in 10.0 mi NW 23.0 mph 36.8 mph N/A   Clear
7:55 AM 15.8 °F -1.9 °F 10.4 °F 79% 30.07 in 10.0 mi WNW 21.9 mph 34.5 mph N/A   Clear
8:15 AM 15.8 °F -2.3 °F 10.4 °F 79% 30.09 in 10.0 mi WNW 23.0 mph 32.2 mph N/A   Clear
8:35 AM 15.8 °F -2.7 °F 10.4 °F 79% 30.09 in 10.0 mi WNW 24.2 mph 35.7 mph N/A   Clear
8:55 AM 17.6 °F 0.5 °F 12.2 °F 79% 30.10 in 10.0 mi WNW 21.9 mph 29.9 mph N/A   Clear
9:15 AM 17.6 °F 1.3 °F 12.2 °F 79% 30.12 in 10.0 mi WNW 19.6 mph 28.8 mph N/A   Clear
9:35 AM 19.4 °F 4.5 °F 12.2 °F 74% 30.13 in 10.0 mi WNW 17.3 mph 25.3 mph N/A   Clear
9:55 AM 19.4 °F 5.0 °F 12.2 °F 74% 30.14 in 10.0 mi WNW 16.1 mph 21.9 mph N/A   Clear
10:15 AM 21.2 °F 6.4 °F 12.2 °F 68% 30.14 in 10.0 mi West 18.4 mph 26.5 mph N/A   Clear
10:35 AM 21.2 °F 6.8 °F 12.2 °F 68% 30.15 in 10.0 mi NW 17.3 mph 23.0 mph N/A   Clear
10:55 AM 23.0 °F 10.6 °F 12.2 °F 63% 30.16 in 10.0 mi WNW 13.8 mph 20.7 mph N/A   Clear
11:15 AM 24.8 °F 13.4 °F 12.2 °F 59% 30.17 in 10.0 mi WNW 12.7 mph 23.0 mph N/A   Clear
11:35 AM 26.6 °F 17.5 °F 12.2 °F 55% 30.18 in 10.0 mi WNW 9.2 mph - N/A   Clear
11:55 AM 26.6 °F 15.7 °F 12.2 °F 55% 30.19 in 10.0 mi NW 12.7 mph 17.3 mph N/A   Clear
12:15 PM 28.4 °F 19.1 °F 12.2 °F 51% 30.19 in 10.0 mi NW 10.4 mph - N/A   Clear
12:35 PM 28.4 °F 19.7 °F 12.2 °F 51% 30.18 in 10.0 mi NW 9.2 mph - N/A   Clear
12:55 PM 28.4 °F 18.0 °F 10.4 °F 47% 30.19 in 10.0 mi WNW 12.7 mph - N/A   Clear
1:15 PM 30.2 °F 20.8 °F 10.4 °F 44% 30.19 in 10.0 mi WNW 11.5 mph - N/A   Clear
1:35 PM 30.2 °F 20.2 °F 10.4 °F 44% 30.19 in 10.0 mi NW 12.7 mph - N/A   Clear
1:55 PM 32.0 °F 23.0 °F 10.4 °F 41% 30.19 in 10.0 mi WNW 11.5 mph 16.1 mph N/A   Clear
2:15 PM 33.8 °F 27.0 °F 10.4 °F 38% 30.19 in 10.0 mi WNW 8.1 mph 16.1 mph N/A   Clear
2:35 PM 33.8 °F 26.4 °F 8.6 °F 35% 30.19 in 10.0 mi NW 9.2 mph - N/A   Clear
2:55 PM 33.8 °F 26.4 °F 8.6 °F 35% 30.20 in 10.0 mi WNW 9.2 mph - N/A   Clear
3:15 PM 33.8 °F 25.8 °F 10.4 °F 38% 30.20 in 10.0 mi West 10.4 mph - N/A   Clear
3:35 PM 33.8 °F 25.3 °F 8.6 °F 35% 30.21 in 10.0 mi West 11.5 mph - N/A   Clear
3:55 PM 33.8 °F 24.8 °F 8.6 °F 35% 30.22 in 10.0 mi WNW 12.7 mph - N/A   Clear
4:15 PM 33.8 °F 25.3 °F 6.8 °F 32% 30.23 in 10.0 mi WNW 11.5 mph 17.3 mph N/A   Clear
4:35 PM 33.8 °F 26.4 °F 8.6 °F 35% 30.23 in 10.0 mi NW 9.2 mph - N/A   Clear
4:55 PM 33.8 °F 25.8 °F 6.8 °F 32% 30.23 in 10.0 mi WNW 10.4 mph 16.1 mph N/A   Clear
5:15 PM 33.8 °F 26.4 °F 6.8 °F 32% 30.23 in 10.0 mi WNW 9.2 mph - N/A   Clear
5:35 PM 32.0 °F 25.6 °F 6.8 °F 35% 30.24 in 10.0 mi WNW 6.9 mph - N/A   Clear
5:55 PM 30.2 °F 21.9 °F 6.8 °F 37% 30.24 in 10.0 mi NW 9.2 mph - N/A   Clear
6:15 PM 30.2 °F 21.9 °F 6.8 °F 37% 30.25 in 10.0 mi NW 9.2 mph - N/A   Clear
6:35 PM 30.2 °F 21.3 °F 8.6 °F 40% 30.25 in 10.0 mi NW 10.4 mph - N/A   Clear
6:55 PM 30.2 °F 21.9 °F 8.6 °F 40% 30.25 in 10.0 mi WNW 9.2 mph - N/A   Clear
7:15 PM 28.4 °F 20.4 °F 8.6 °F 43% 30.26 in 10.0 mi WNW 8.1 mph - N/A   Clear
7:35 PM 28.4 °F 19.1 °F 10.4 °F 47% 30.27 in 10.0 mi WNW 10.4 mph - N/A   Clear
7:55 PM 28.4 °F 22.2 °F 10.4 °F 47% 30.27 in 10.0 mi West 5.8 mph - N/A   Clear
8:15 PM 28.4 °F 22.2 °F 10.4 °F 47% 30.27 in 10.0 mi WNW 5.8 mph - N/A   Clear
8:35 PM 28.4 °F 21.2 °F 10.4 °F 47% 30.27 in 10.0 mi WNW 6.9 mph - N/A   Clear
8:55 PM 28.4 °F 24.6 °F 10.4 °F 47% 30.27 in 10.0 mi WNW 3.5 mph - N/A   Clear
9:15 PM 26.6 °F 21.2 °F 10.4 °F 51% 30.28 in 10.0 mi West 4.6 mph - N/A   Clear
9:35 PM 24.8 °F 17.9 °F 10.4 °F 54% 30.28 in 10.0 mi West 5.8 mph - N/A   Clear
9:55 PM 24.8 °F 19.1 °F 10.4 °F 54% 30.28 in 10.0 mi West 4.6 mph - N/A   Clear
10:15 PM 26.6 °F 21.2 °F 10.4 °F 51% 30.28 in 10.0 mi WSW 4.6 mph - N/A   Clear
10:35 PM 26.6 °F 20.0 °F 10.4 °F 51% 30.27 in 10.0 mi West 5.8 mph - N/A   Clear
10:55 PM 28.4 °F 22.2 °F 10.4 °F 47% 30.27 in 10.0 mi West 5.8 mph - N/A   Clear
11:15 PM 26.6 °F 20.0 °F 10.4 °F 51% 30.27 in 10.0 mi WSW 5.8 mph - N/A   Clear
11:35 PM 30.2 °F 25.4 °F 3.2 °F 32% 30.27 in 10.0 mi South 4.6 mph - N/A   Clear
11:55 PM 32.0 °F 27.5 °F -5.8 °F 20% 30.27 in 10.0 mi South 4.6 mph - N/A   Clear